Weather History for Green Bay, WI

Change the Weather History Date:

Friday, May 3, 2013

  Actual Average Record
Temperature  
Mean Temperature 41 °F 51 °F  
Max Temperature 47 °F 62 °F 86 °F (1949)
Min Temperature 35 °F 40 °F 27 °F (1967)
Degree Days  
Heating Degree Days 24 14  
Month to date heating degree days 52 44  
Since 1 July heating degree days 7399 7581  
Cooling Degree Days 0 0  
Month to date cooling degree days 0 0  
Year to date cooling degree days 5 2  
Moisture  
Dew Point 38 °F    
Average Humidity 88    
Maximum Humidity 93    
Minimum Humidity 82    
Precipitation  
Precipitation 0.49 in 0.08 in 1.25 in (2012)
Month to date precipitation 1.47 0.25  
Year to date precipitation 11.52 6.97  
Snow  
Snow 0.00 in 0.00 in T in (1976)
Month to date snowfall 0.0 0.0  
Since 1 July snowfall 74.2 51.2  
Snow Depth 0.00 in    
Sea Level Pressure  
Sea Level Pressure 30.15 in    
Wind  
Wind Speed 15 mph (NNE)    
Max Wind Speed 23 mph    
Max Gust Speed 28 mph    
Visibility 8 miles    
Events Rain    
T = Trace of Precipitation, MM = Missing Value Source: NWS Daily Summary

Daily Weather History Graph

Daily Weather History Graph

Search for Another Location

Airport:

Trip Planner

Search our weather history database for the weather conditions in past years. The results will help you decide how hot, cold, wet, or windy it might be!

Date:

Astronomy

May. 03, 2013 Rise Set
Actual Time 5:39 AM CDT 7:59 PM CDT
Civil Twilight 5:07 AM CDT 8:32 PM CDT
Nautical Twilight 4:27 AM CDT 9:12 PM CDT
Astronomical Twilight 3:42 AM CDT 9:57 PM CDT
Moon 2:19 AM CDT (5/3) 1:39 PM CDT (5/3)
Length of Visible Light 15h 24m
Length of Day
14h 19m
Last Quarter, 37% of the Moon is Illuminated
May 3
Last Quarter
May 9
New
May 17
First Quarter
May 24
Full
May 31
Last Quarter

Hourly Weather History & Observations

Time (CDT) Temp. Windchill Dew Point Humidity Pressure Visibility Wind Dir Wind Speed Gust Speed Precip Events Conditions
12:53 AM 35.1 °F 25.2 °F 33.1 °F 92% 30.26 in 4.0 mi North 16.1 mph - 0.04 in Rain Rain
1:53 AM 35.1 °F 26.9 °F 32.0 °F 89% 30.24 in 6.0 mi North 11.5 mph - 0.09 in Rain Rain
2:39 AM 35.1 °F 25.5 °F 32.0 °F 89% 30.21 in 6.0 mi North 15.0 mph - 0.04 in Rain Light Rain
2:53 AM 35.1 °F 25.9 °F 32.0 °F 89% 30.23 in 6.0 mi North 13.8 mph - 0.05 in Rain Light Rain
3:18 AM 35.1 °F 25.2 °F 32.0 °F 89% 30.20 in 10.0 mi North 16.1 mph 20.7 mph 0.01 in Rain Light Rain
3:26 AM 35.1 °F 25.5 °F 32.0 °F 89% 30.20 in 10.0 mi North 15.0 mph - 0.01 in Rain Light Rain
3:53 AM 35.1 °F 26.9 °F 32.0 °F 89% 30.22 in 10.0 mi North 11.5 mph - 0.01 in   Overcast
4:28 AM 35.1 °F 25.9 °F 32.0 °F 89% 30.19 in 10.0 mi NNE 13.8 mph - 0.00 in   Overcast
4:53 AM 35.1 °F 25.2 °F 32.0 °F 89% 30.20 in 10.0 mi North 16.1 mph - 0.00 in   Overcast
5:53 AM 35.1 °F 25.2 °F 32.0 °F 89% 30.19 in 10.0 mi NNE 16.1 mph - N/A   Overcast
6:48 AM 35.6 °F 26.2 °F 32.0 °F 87% 30.18 in 10.0 mi North 15.0 mph - N/A   Overcast
6:53 AM 36.0 °F 27.5 °F 32.0 °F 86% 30.20 in 10.0 mi NNE 12.7 mph - N/A   Overcast
7:53 AM 36.0 °F 26.7 °F 33.1 °F 89% 30.20 in 10.0 mi NNE 15.0 mph - N/A   Overcast
8:53 AM 37.9 °F 28.5 °F 34.0 °F 86% 30.19 in 10.0 mi NE 17.3 mph 24.2 mph N/A   Overcast
9:53 AM 39.0 °F 28.8 °F 35.1 °F 86% 30.18 in 10.0 mi NNE 21.9 mph - N/A   Overcast
10:53 AM 41.0 °F 33.1 °F 37.0 °F 86% 30.17 in 10.0 mi NE 15.0 mph 24.2 mph N/A   Overcast
11:39 AM 41.0 °F 32.5 °F 37.0 °F 86% 30.13 in 8.0 mi NE 17.3 mph - 0.00 in Rain Light Rain
11:53 AM 41.0 °F 32.5 °F 37.0 °F 86% 30.15 in 8.0 mi NE 17.3 mph - 0.01 in Rain Light Rain
12:10 PM 42.1 °F 33.9 °F 37.9 °F 85% 30.11 in 7.0 mi NE 17.3 mph - 0.00 in Rain Light Rain
12:31 PM 41.0 °F 33.9 °F 37.9 °F 89% 30.12 in 2.5 mi NE 12.7 mph - 0.05 in Rain Rain
12:53 PM 42.1 °F 33.9 °F 37.9 °F 85% 30.13 in 8.0 mi NE 17.3 mph - 0.08 in Rain Light Rain
1:53 PM 43.0 °F 35.7 °F 39.9 °F 89% 30.13 in 3.0 mi NNE 15.0 mph - 0.09 in Rain Light Rain
2:53 PM 45.0 °F 38.9 °F 41.0 °F 86% 30.14 in 4.0 mi NE 12.7 mph - 0.01 in Rain Light Rain
3:53 PM 46.0 °F 39.3 °F 43.0 °F 89% 30.11 in 8.0 mi NE 16.1 mph - 0.01 in Rain Light Rain
4:53 PM 46.0 °F 39.9 °F 42.1 °F 86% 30.11 in 5.0 mi NE 13.8 mph - 0.01 in Rain Light Rain
5:37 PM 46.0 °F 40.2 °F 43.0 °F 89% 30.09 in 5.0 mi NE 12.7 mph - 0.04 in Rain Light Rain
5:53 PM 46.0 °F 41.0 °F 43.0 °F 89% 30.10 in 6.0 mi NNE 10.4 mph - 0.05 in Rain Light Rain
6:36 PM 46.0 °F 40.6 °F 44.1 °F 93% 30.08 in 6.0 mi NE 11.5 mph - 0.01 in Rain Light Rain
6:53 PM 46.9 °F - 44.1 °F 90% 30.10 in 7.0 mi NE 11.5 mph - 0.01 in Rain Light Rain
7:05 PM 46.0 °F 40.6 °F 44.1 °F 93% 30.09 in 8.0 mi NE 11.5 mph - 0.00 in   Overcast
7:53 PM 46.0 °F 39.9 °F 44.1 °F 93% 30.12 in 5.0 mi NE 13.8 mph - 0.01 in Rain Light Rain
8:14 PM 46.0 °F 39.6 °F 44.1 °F 93% 30.09 in 5.0 mi NNE 15.0 mph - 0.04 in Rain Light Rain
8:53 PM 46.0 °F 40.2 °F 43.0 °F 89% 30.11 in 8.0 mi NE 12.7 mph - 0.04 in Rain Light Rain
9:51 PM 46.4 °F 40.1 °F 42.8 °F 87% 30.09 in 10.0 mi NE 15.0 mph - 0.02 in   Overcast
9:53 PM 46.0 °F 39.6 °F 43.0 °F 89% 30.11 in 10.0 mi NE 15.0 mph - 0.02 in   Overcast
10:53 PM 45.0 °F 37.9 °F 42.1 °F 90% 30.09 in 10.0 mi NE 16.1 mph - N/A   Overcast
11:53 PM 44.1 °F 36.8 °F 39.9 °F 85% 30.09 in 10.0 mi NE 16.1 mph - N/A   Scattered Clouds